Peterborough, Ontario

11:23 AM EDT on May 23, 2017 (GMT -0400)
Peterborough

Weather History for CYPQ - April, 2013

Change the Weather History Date:

Tuesday, April 2, 2013

  Actual Average Record
Temperature  
Mean Temperature 2 °F -  
Max Temperature 33 °F 52 °F 62 °F (2015)
Min Temperature -29 °F 32 °F -29 °F (2013)
Degree Days  
Heating Degree Days 63    
Moisture  
Dew Point 12 °F    
Average Humidity 68    
Maximum Humidity 86    
Minimum Humidity 44    
Precipitation  
Precipitation 0.00 in 0.09 in - ()
Sea Level Pressure  
Sea Level Pressure 29.99 in    
Wind  
Wind Speed 13 mph ()    
Max Wind Speed 30 mph    
Max Gust Speed 43 mph    
Visibility 7.9 miles    
Events Rain , Snow    
Averages and records for this station are not official NWS values.
T = Trace of Precipitation, MM = Missing Value Source: Averaged Metar Reports

Daily Weather History Graph

Daily Weather History Graph

Search for Another Location

Airport or City:

Trip Planner

Search our weather history database for the weather conditions in past years. The results will help you decide how hot, cold, wet, or windy it might be!

Date:

Astronomy

Apr. 02, 2013 Rise Set
Actual Time 6:52 AM EDT 7:42 PM EDT
Civil Twilight 6:23 AM EDT 8:11 PM EDT
Nautical Twilight 5:48 AM EDT 8:46 PM EDT
Astronomical Twilight 5:11 AM EDT 9:23 PM EDT
Moon 1:54 AM EDT (4/2) 11:32 AM EDT (4/2)
Length of Visible Light 13h 48m
Length of Day
12h 49m
Waning Gibbous, 56% of the Moon is Illuminated
Apr 2
Waning Gibbous
Apr 3
Last Quarter
Apr 10
New
Apr 18
First Quarter
Apr 25
Full

Hourly Weather History & Observations

Time (EDT) Temp. Windchill Dew Point Humidity Pressure Visibility Wind Dir Wind Speed Gust Speed Precip Events Conditions
12:00 AM 23.0 °F 11.7 °F 19.4 °F 86% 29.93 in 9.0 mi West 11.5 mph 18.4 mph N/A Snow Light Snow
12:03 AM 23.0 °F 9.2 °F 19.4 °F 86% 29.93 in 5.0 mi West 17.3 mph - N/A Snow Light Snow
12:15 AM 23.0 °F 11.7 °F 19.4 °F 86% 29.93 in 6.0 mi West 11.5 mph 17.3 mph N/A Snow Light Snow
12:34 AM 23.0 °F 11.1 °F 19.4 °F 86% 29.93 in 9.0 mi West 12.7 mph - N/A   Mostly Cloudy
1:00 AM 21.2 °F 10.9 °F 17.6 °F 86% 29.93 in 9.0 mi West 9.2 mph - N/A   Partly Cloudy
2:00 AM -21 °F - -28 °F 56% 30.06 in - NNW 10.4 mph - -  
2:00 AM 21.2 °F 10.1 °F 15.8 °F 80% 29.93 in 9.0 mi West 10.4 mph - N/A   Clear
3:00 AM 19.4 °F 8.6 °F 14.0 °F 80% 29.92 in 9.0 mi West 9.2 mph - N/A   Clear
4:00 AM 19.4 °F 8.6 °F 12.2 °F 74% 29.91 in 9.0 mi West 9.2 mph - N/A   Clear
5:00 AM 21.2 °F 9.5 °F 12.2 °F 68% 29.92 in 9.0 mi West 11.5 mph 17.3 mph N/A   Scattered Clouds
5:17 AM 21.2 °F 9.5 °F 15.8 °F 80% 29.93 in 9.0 mi NW 11.5 mph - N/A Snow Light Snow
5:47 AM 19.4 °F 8.6 °F 15.8 °F 86% 29.94 in 4.0 mi NNW 9.2 mph - N/A Snow Light Snow
6:10 AM 19.4 °F 6.6 °F 14.0 °F 80% 29.95 in 3.0 mi NW 12.7 mph - N/A Snow Light Snow
6:11 AM 19.4 °F 6.6 °F 14.0 °F 80% 29.95 in 2.2 mi NW 12.7 mph - N/A Snow Light Snow
6:12 AM 19.4 °F 7.2 °F 15.8 °F 86% 29.95 in 2.0 mi NW 11.5 mph - N/A Snow Light Snow
6:20 AM 19.4 °F 9.5 °F 15.8 °F 86% 29.95 in 2.2 mi WNW 8.1 mph - N/A Snow Light Snow
6:22 AM 19.4 °F 9.5 °F 15.8 °F 86% 29.95 in 3.0 mi WNW 8.1 mph - N/A Snow Light Snow
6:25 AM 19.4 °F 10.4 °F 15.8 °F 86% 29.96 in 6.0 mi WNW 6.9 mph - N/A Snow Light Snow
6:27 AM 19.4 °F 9.5 °F 15.8 °F 86% 29.96 in 9.0 mi WNW 8.1 mph - N/A Snow Light Snow
6:53 AM 19.4 °F 7.2 °F 12.2 °F 74% 29.96 in 9.0 mi NW 11.5 mph - N/A   Mostly Cloudy
7:00 AM 19.4 °F 7.9 °F 12.2 °F 74% 29.97 in 9.0 mi WNW 10.4 mph - N/A   Mostly Cloudy
8:00 AM -26 °F - -33 °F 55% 30.06 in - NNE 3.5 mph - -  
8:00 AM 19.4 °F 8.6 °F 14.0 °F 80% 29.98 in 9.0 mi West 9.2 mph - N/A   Overcast
8:13 AM 21.2 °F 10.1 °F 14.0 °F 74% 29.99 in 9.0 mi WNW 10.4 mph - N/A Snow Light Snow
8:31 AM 21.2 °F 9.5 °F 14.0 °F 74% 29.99 in 5.0 mi WNW 11.5 mph 20.7 mph N/A Snow Light Snow
8:35 AM 21.2 °F 10.1 °F 15.8 °F 80% 29.99 in 6.0 mi WNW 10.4 mph 20.7 mph N/A Snow Light Snow
9:00 AM 21.2 °F 9.5 °F 15.8 °F 80% 29.99 in 9.0 mi West 11.5 mph - N/A Snow Light Snow
9:05 AM 21.2 °F 8.3 °F 14.0 °F 74% 29.99 in 9.0 mi West 13.8 mph - N/A   Mostly Cloudy
10:00 AM 24.8 °F 11.1 °F 14.0 °F 64% 29.99 in 9.0 mi WNW 18.4 mph 27.6 mph N/A   Partly Cloudy
10:57 AM 26.6 °F 12.4 °F 14.0 °F 59% 29.99 in 9.0 mi WNW 21.9 mph 28.8 mph N/A Snow Light Snow
11:00 AM 26.6 °F 12.7 °F 14.0 °F 59% 29.99 in 9.0 mi West 20.7 mph 28.8 mph N/A Snow Light Snow
11:09 AM 26.6 °F 11.7 °F 14.0 °F 59% 29.98 in 9.0 mi WNW 24.2 mph 31.1 mph N/A   Overcast
1:00 PM 28.4 °F 13.3 °F 14.0 °F 55% 29.98 in 9.0 mi WNW 27.6 mph 34.5 mph N/A   Overcast
1:03 PM 28.4 °F 15.4 °F 14.0 °F 55% 29.99 in 9.0 mi WNW 19.6 mph 34.5 mph N/A Snow Light Snow
1:19 PM 30.2 °F 18.5 °F 15.8 °F 55% 29.98 in 9.0 mi WNW 17.3 mph 31.1 mph N/A   Overcast
1:28 PM 30.2 °F 15.2 °F 15.8 °F 55% 29.97 in 9.0 mi West 29.9 mph 42.6 mph N/A   Overcast
2:00 PM -15 °F - -23 °F 50% 30.05 in - ENE 1.2 mph - -  
2:00 PM 32.0 °F 20.1 °F 15.8 °F 51% 29.98 in 9.0 mi West 19.6 mph 36.8 mph N/A   Mostly Cloudy
2:37 PM 30.2 °F 16.2 °F 15.8 °F 55% 29.98 in 9.0 mi West 25.3 mph 36.8 mph N/A Snow Light Snow
2:48 PM 32.0 °F 18.6 °F 15.8 °F 51% 29.98 in 9.0 mi West 25.3 mph 38.0 mph N/A   Mostly Cloudy
3:00 PM 33.8 °F 22.2 °F 15.8 °F 48% 29.97 in 9.0 mi West 20.7 mph 32.2 mph N/A   Mostly Cloudy
3:12 PM 33.8 °F 21.0 °F 17.6 °F 52% 29.97 in 9.0 mi West 25.3 mph 39.1 mph N/A Rain Light Rain
3:30 PM 32.0 °F 19.5 °F 15.8 °F 51% 29.98 in 9.0 mi WNW 21.9 mph 36.8 mph N/A   Mostly Cloudy
4:00 PM 33.8 °F 20.8 °F 14.0 °F 44% 29.97 in 9.0 mi WNW 26.5 mph 40.3 mph N/A   Mostly Cloudy
5:00 PM 32.0 °F 18.6 °F 12.2 °F 44% 29.99 in 9.0 mi WNW 25.3 mph 39.1 mph N/A   Mostly Cloudy
6:00 PM 30.2 °F 15.9 °F 12.2 °F 47% 30.01 in 9.0 mi West 26.5 mph 35.7 mph N/A   Mostly Cloudy
7:00 PM 30.2 °F 18.1 °F 14.0 °F 51% 30.03 in 9.0 mi WNW 18.4 mph 31.1 mph N/A   Mostly Cloudy
8:00 PM -19 °F - -26 °F 57% 30.09 in - WNW 6.9 mph - -  
8:00 PM 26.6 °F 14.3 °F 17.6 °F 69% 30.04 in 9.0 mi West 16.1 mph 23.0 mph N/A   Clear
8:08 PM 28.4 °F 16.2 °F 17.6 °F 64% 30.05 in 9.0 mi WNW 17.3 mph 26.5 mph N/A Snow Light Snow
8:25 PM 26.6 °F 12.7 °F 17.6 °F 69% 30.05 in 9.0 mi WNW 20.7 mph 29.9 mph N/A   Partly Cloudy
9:00 PM 26.6 °F 16.8 °F 15.8 °F 64% 30.07 in 9.0 mi WNW 10.4 mph 19.6 mph N/A   Clear
9:47 PM 26.6 °F 14.3 °F 17.6 °F 69% 30.07 in 9.0 mi WNW 16.1 mph - N/A Snow Light Snow
9:59 PM 26.6 °F 15.2 °F 15.8 °F 64% 30.07 in 9.0 mi WNW 13.8 mph 23.0 mph N/A   Scattered Clouds
10:00 PM 26.6 °F 14.3 °F 15.8 °F 64% 30.07 in 9.0 mi WNW 16.1 mph 21.9 mph N/A   Scattered Clouds
11:00 PM 26.6 °F 14.7 °F 14.0 °F 59% 30.08 in 9.0 mi West 15.0 mph - N/A   Clear